Location: Chena
(64.8152°N, 147.9227°W)
Time: 15:30:50
(UTC+00:00)

A-11 Canister half - All Passes

Search period start: 27 February 2021 00:00
Search period end: 09 March 2021 00:00
Orbit: 1516 x 1684 km, 47.2° (Epoch: 26 February)

Date Brightness Start Highest point End Pass type
(mag) Time Alt. Az. Time Alt. Az. Time Alt. Az.
27 Feb - 00:31:21 10° WSW 00:39:08 27° S 00:46:43 10° SE daylight
27 Feb - 02:35:14 10° WSW 02:41:25 19° SSW 02:47:30 10° S daylight
27 Feb - 20:07:07 10° SSE 20:11:43 14° SE 20:16:16 10° ESE daylight
27 Feb - 22:06:16 10° SSW 22:13:46 25° SSE 22:21:07 10° ESE daylight
28 Feb - 00:08:29 10° WSW 00:16:20 27° S 00:23:58 10° SE daylight
28 Feb - 02:12:17 10° WSW 02:18:40 20° SSW 02:24:55 10° S daylight
28 Feb - 19:44:41 10° SSE 19:48:58 14° SE 19:53:12 10° ESE daylight
28 Feb - 21:43:31 10° SSW 21:50:58 24° SSE 21:58:17 10° ESE daylight
28 Feb - 23:45:38 10° WSW 23:53:31 28° S 00:01:13 10° SE daylight
01 Mar - 01:49:20 10° WSW 01:55:53 20° SSW 02:02:19 10° SSE daylight
01 Mar - 19:22:18 10° SSE 19:26:12 13° SE 19:30:06 10° ESE daylight
01 Mar - 21:20:46 10° SSW 21:28:10 24° SSE 21:35:26 10° ESE daylight
01 Mar - 23:22:48 10° WSW 23:30:42 28° S 23:38:26 10° SE daylight
02 Mar - 01:26:24 10° WSW 01:33:07 21° SSW 01:39:41 10° SSE daylight
02 Mar - 18:59:59 10° SSE 19:03:28 12° SE 19:06:55 10° ESE daylight
02 Mar - 20:58:02 10° SSW 21:05:22 24° SSE 21:12:34 10° ESE daylight
02 Mar - 22:59:57 10° SW 23:07:54 28° S 23:15:40 10° SE daylight
03 Mar - 01:03:28 10° WSW 01:10:20 22° SSW 01:17:03 10° SSE daylight
03 Mar - 18:37:46 10° SSE 18:40:43 12° SE 18:43:39 10° ESE daylight
03 Mar - 20:35:19 10° SSW 20:42:34 23° SSE 20:49:42 10° ESE daylight
03 Mar - 22:37:07 10° SW 22:45:05 28° S 22:52:53 10° SE daylight
04 Mar - 00:40:33 10° WSW 00:47:33 22° SSW 00:54:24 10° SSE daylight
04 Mar - 02:47:49 10° WSW 02:49:14 10° SW 02:50:40 10° SW daylight
04 Mar - 18:15:41 10° SE 18:17:59 11° SE 18:20:14 10° ESE daylight
04 Mar - 20:12:36 10° SSW 20:19:46 23° SSE 20:26:50 10° ESE daylight
04 Mar - 22:14:17 10° SW 22:22:16 28° S 22:30:06 10° SE daylight
05 Mar - 00:17:37 10° WSW 00:24:45 23° SSW 00:31:45 10° SSE daylight
05 Mar - 02:24:05 10° WSW 02:26:31 11° SW 02:28:57 10° SW daylight
05 Mar - 17:54:01 10° SE 17:55:14 10° SE 17:56:26 10° ESE daylight
05 Mar - 19:49:54 10° SSW 19:56:58 22° SSE 20:03:57 10° ESE daylight
05 Mar - 21:51:27 10° SW 21:59:27 28° S 22:07:18 10° SE daylight
05 Mar - 23:54:42 10° WSW 00:01:58 23° SSW 00:09:04 10° SSE daylight
06 Mar - 02:00:39 10° WSW 02:03:47 12° SW 02:06:53 10° SSW daylight
06 Mar - 19:27:12 10° SSW 19:34:10 22° SSE 19:41:03 10° ESE daylight
06 Mar - 21:28:37 10° SW 21:36:38 28° S 21:44:30 10° SE daylight
06 Mar - 23:31:48 10° WSW 23:39:10 24° SSW 23:46:23 10° SSE daylight
07 Mar - 01:37:23 10° WSW 01:41:03 13° SW 01:44:40 10° SSW daylight
07 Mar - 19:04:31 10° SSW 19:11:22 21° SSE 19:18:10 10° ESE daylight
07 Mar - 21:05:48 10° SW 21:13:49 28° S 21:21:42 10° ESE daylight
07 Mar - 23:08:54 10° WSW 23:16:22 24° SSW 23:23:42 10° SSE daylight
08 Mar - 01:14:11 10° WSW 01:18:18 13° SW 01:22:23 10° SSW daylight
08 Mar - 18:41:51 10° SSW 18:48:35 20° SSE 18:55:15 10° ESE daylight
08 Mar - 20:43:00 10° SW 20:51:00 28° S 20:58:53 10° ESE daylight
08 Mar - 22:46:00 10° WSW 22:53:34 25° SSW 23:00:59 10° SSE daylight
